TITAN 3C TRANSTAGE R/B, 7324

Orbit data source: Space-Track

TITAN 3C TRANSTAGE R/B, 7324 is space debris in GEO originally from a launch on Thu, 30 May 1974 UTC launched from the Air Force Eastern Test Range (AFETR). Debris objects in space refer to the collection of defunct objects orbiting the Earth. Examples of debris include non-operational satellites, rocket bodies, and fragments generated from explosions, collisions, or faulty payload assembly.

Loading next visibility...
TITAN 3C TRANSTAGE R/B details
Identifier
7324, 1974-039C
Orbit
GEO
Last TLE update14 hours ago
Origin
Flag of USNASA LeRC (US)
ManufacturerMartin Marietta
MissionSpacecraft
Bus & MotorTRANSTAGE, Unknown motor
Mass~1,950 kg wet, ~1,950 kg dry
Launch date (UTC)
1974-05-30 (51 years ago)
Launch vehicleUnknown
Launch site
Air Force Eastern Test Range (AFETR)
Object type
Payload
Rocket body
Debris
Shape & HBRCyl + 2 Nozzle, 4.6 m
Radar Cross Section14.974 m², Large (>1 m²)

Expand to show TLE details & history

TLE from 14 hours ago
0 TITAN 3C TRANSTAGE R/B
1 07324U 74039C   24346.72603550 -.00000243  00000-0  00000-0 0  9996
2 07324   4.1641 271.3244 0033181  63.0948 314.9862  1.00719491114060
Epoch: 2024-12-11T17:25Z
Definitive object data (Epoch: 2024-12-11T17:25:29.467Z)
Latitude1.26186°
Longitude-53.22301°
Altitude35,562.886 km
Speed3.086 km/s
True Right ascension19h 16m 15s
True Declination1° 15' 38"
Sunlit
Object was in daylight at TLE epoch
Visualization TLE readout
Latitude-3.08802°
Longitude156.79659°
Altitude35,795.526 km
Speed3.069 km/s
Apparent Right ascension09h 39m 12s
Apparent Declination-9° 08' 54"
Sunlit
Object is in daylight
Visualization observer readout
Local Sidereal Time05:43:40
Azimuth117.997° SE
Elevation16.818°
Doppler factor1
Orbital elements
Apogee altitude35,802.112 km
Perigee altitude35,523.122 km
Semi-major axis42,040.754 km
Eccentricity0.0033181
Inclination4.1641°
RAAN271.3244°
Arg. of periapsis63.0948°
True anomaly314.71648°
Mean anomaly314.9862°
Eccentric anomaly314.85142°
Mean motion0.25179 °/min
BSTARUnknown
Orbital period1429.77 mins
Loading historical data...
7324 neighbors
Authenticating...
Loading maneuver chart data...
Loading historical data...
Loading historical data...
Loading historical data...
Loading historical data...
Loading historical data...
Loading historical data...
Loading historical data...

TITAN 3C TRANSTAGE R/B Visibility forecast

Observer location: undefined°, undefined

Span
Click to sort rows by Start time (UTC) header in descending order
Start Az.
Max El. time (UTC)
Max El. Az.
Max El.
End time (UTC)
End Az.
1440 mins2024-12-12 07:18:12.355Z118.011° SE2024-12-12 21:20:12.355Z111.558° ESE20.093°2024-12-13 07:18:12.355Z116.819° SE
|